Location: Makakahi
(40.6833°S, 175.6000°E)
Time: 00:20:58
(UTC+00:00)

FENGYUN 1C DEB - Pass Details

Date: 12 December 2024
Orbit: 812 x 877 km, 98.8° (Epoch: 19 January)

Event Time Altitude Azimuth Distance (km) Brightness Sun altitude
Rises 10:49:02 0° 187° (S) 3,387 ? -23.4°
Reaches altitude 10° 10:52:52 10° 214° (SW) 2,455 ? -23.6°
Maximum altitude 10:55:01 12° 238° (WSW) 2,285 ? -23.8°
Drops below altitude 10° 10:57:10 10° 262° (W) 2,459 ? -23.9°
Sets 11:01:02 0° 289° (WNW) 3,399 ? -24.1°
